CEB793 RPLL-RPME

Flight info

Callsign CEB793
Flight time N/A
Altitude 37000
Route IPATA2V IPATA B462 TAC W9 BANWA DCT ROLEX TACL2B
Aircraft A21N/M-SDE3FGHIRWY/LB1

Departure

Time N/A
Airport Ninoy Aquino International Airport (RPLL)

Arrival

Time 2026-05-05 05:49
Airport Bancasi Airport (RPME)
Time Latitude Longitude Altitude Speed Heading
2026-05-05 05:25 10.52105 125.20668 36915 ft 470 kts 161°
2026-05-05 05:25 10.49001 125.21671 36914 ft 470 kts 161°
2026-05-05 05:26 10.42747 125.23693 36723 ft 466 kts 162°
2026-05-05 05:26 10.39682 125.24684 36428 ft 460 kts 162°
2026-05-05 05:26 10.36635 125.25668 36131 ft 455 kts 162°
2026-05-05 05:26 10.33616 125.26643 35750 ft 452 kts 162°
2026-05-05 05:27 10.30611 125.27612 35238 ft 450 kts 162°
2026-05-05 05:27 10.27648 125.28569 34637 ft 450 kts 162°
2026-05-05 05:27 10.21641 125.30509 33283 ft 452 kts 162°
2026-05-05 05:28 10.18662 125.31470 32583 ft 453 kts 162°
2026-05-05 05:28 10.15633 125.32448 31922 ft 455 kts 162°
2026-05-05 05:28 10.12627 125.33417 31188 ft 456 kts 162°
2026-05-05 05:28 10.09592 125.34395 30373 ft 458 kts 162°
2026-05-05 05:29 10.06551 125.35375 29514 ft 462 kts 162°
2026-05-05 05:29 10.03468 125.36369 28609 ft 466 kts 161°
2026-05-05 05:29 10.00355 125.37372 27692 ft 470 kts 161°
2026-05-05 05:29 9.97262 125.38367 26790 ft 473 kts 161°
2026-05-05 05:30 9.94118 125.39380 25860 ft 476 kts 161°
2026-05-05 05:30 9.90939 125.40404 24895 ft 478 kts 161°
2026-05-05 05:30 9.87759 125.41428 24030 ft 477 kts 160°
2026-05-05 05:30 9.84610 125.42443 23405 ft 471 kts 160°
2026-05-05 05:31 9.81509 125.43441 22780 ft 466 kts 160°
2026-05-05 05:31 9.78427 125.44433 22148 ft 461 kts 160°
2026-05-05 05:31 9.75394 125.45410 21531 ft 456 kts 160°
2026-05-05 05:31 9.72347 125.46356 20926 ft 452 kts 163°
2026-05-05 05:32 9.69268 125.46849 20321 ft 450 kts 174°
2026-05-05 05:32 9.66167 125.46782 19720 ft 448 kts 184°
2026-05-05 05:32 9.63092 125.46250 19117 ft 445 kts 189°
2026-05-05 05:32 9.60060 125.45609 18508 ft 441 kts 190°
2026-05-05 05:33 9.57092 125.44964 17903 ft 437 kts 190°
2026-05-05 05:33 9.54102 125.44318 17291 ft 432 kts 190°
2026-05-05 05:33 9.51195 125.43703 16706 ft 428 kts 189°
2026-05-05 05:33 9.48270 125.43091 16089 ft 425 kts 190°
2026-05-05 05:34 9.45377 125.42490 15458 ft 422 kts 190°
2026-05-05 05:34 9.42507 125.41894 14826 ft 419 kts 190°
2026-05-05 05:34 9.39655 125.41303 14201 ft 415 kts 190°
2026-05-05 05:34 9.36873 125.40725 13789 ft 405 kts 190°
2026-05-05 05:35 9.34129 125.40154 13434 ft 394 kts 190°
2026-05-05 05:35 9.31473 125.39600 13093 ft 383 kts 190°
2026-05-05 05:35 9.28920 125.39067 12903 ft 369 kts 190°
2026-05-05 05:35 9.26407 125.38543 12710 ft 357 kts 190°
2026-05-05 05:36 9.24008 125.38042 12485 ft 343 kts 190°
2026-05-05 05:36 9.21764 125.37573 12307 ft 319 kts 190°
2026-05-05 05:36 9.19638 125.37196 12121 ft 302 kts 181°
2026-05-05 05:36 9.17635 125.37603 11936 ft 288 kts 152°
2026-05-05 05:37 9.16094 125.38827 11579 ft 284 kts 128°
2026-05-05 05:37 9.14945 125.40461 11220 ft 282 kts 124°
2026-05-05 05:37 9.13819 125.42094 10850 ft 281 kts 124°
2026-05-05 05:37 9.12692 125.43712 10501 ft 280 kts 124°
2026-05-05 05:38 9.11575 125.45302 10153 ft 280 kts 124°
2026-05-05 05:38 9.10436 125.46912 9786 ft 279 kts 124°
2026-05-05 05:38 9.09319 125.48490 9427 ft 278 kts 124°
2026-05-05 05:38 9.08187 125.50086 9062 ft 276 kts 124°
2026-05-05 05:39 9.05958 125.53223 8379 ft 274 kts 124°
2026-05-05 05:39 9.04844 125.54790 8034 ft 272 kts 124°
2026-05-05 05:39 9.03753 125.56324 7691 ft 271 kts 124°
2026-05-05 05:40 9.02650 125.57873 7342 ft 270 kts 124°
2026-05-05 05:40 9.01544 125.59427 6976 ft 269 kts 124°
2026-05-05 05:40 9.00458 125.60951 6630 ft 267 kts 124°
2026-05-05 05:40 8.99375 125.62471 6294 ft 263 kts 124°
2026-05-05 05:41 8.98331 125.63935 5942 ft 252 kts 123°
2026-05-05 05:41 8.97332 125.65337 5616 ft 240 kts 124°
2026-05-05 05:41 8.96369 125.66688 5301 ft 229 kts 124°
2026-05-05 05:41 8.95467 125.67951 5136 ft 210 kts 124°
2026-05-05 05:42 8.94658 125.69082 5047 ft 195 kts 124°
2026-05-05 05:42 8.93851 125.70177 4946 ft 194 kts 129°
2026-05-05 05:42 8.92726 125.70934 4807 ft 198 kts 158°
2026-05-05 05:42 8.91341 125.71067 4571 ft 203 kts 187°
2026-05-05 05:43 8.90436 125.70781 4377 ft 203 kts 202°
2026-05-05 05:43 8.88755 125.69933 4062 ft 202 kts 206°
2026-05-05 05:43 8.87503 125.69272 3826 ft 202 kts 207°
2026-05-05 05:43 8.86417 125.68387 3528 ft 202 kts 234°
2026-05-05 05:44 8.85968 125.67055 3377 ft 202 kts 269°
2026-05-05 05:44 8.86260 125.65676 3290 ft 200 kts 296°
2026-05-05 05:44 8.86890 125.64431 3155 ft 199 kts 301°
2026-05-05 05:44 8.87547 125.63206 2998 ft 192 kts 301°
2026-05-05 05:45 8.88141 125.62075 2832 ft 174 kts 301°
2026-05-05 05:45 8.88666 125.61048 2760 ft 156 kts 300°
2026-05-05 05:45 8.89148 125.60092 2572 ft 149 kts 301°
2026-05-05 05:45 8.89611 125.59164 2400 ft 148 kts 300°
2026-05-05 05:46 8.90076 125.58226 2211 ft 148 kts 300°
2026-05-05 05:46 8.90529 125.57307 2021 ft 147 kts 301°
2026-05-05 05:46 8.90989 125.56375 1825 ft 147 kts 301°
2026-05-05 05:46 8.91440 125.55460 1632 ft 146 kts 300°
2026-05-05 05:47 8.91893 125.54542 1435 ft 145 kts 300°
2026-05-05 05:47 8.92344 125.53626 1242 ft 145 kts 300°
2026-05-05 05:47 8.92798 125.52702 1048 ft 145 kts 300°
2026-05-05 05:47 8.93244 125.51797 855 ft 144 kts 300°
2026-05-05 05:48 8.93672 125.50877 605 ft 144 kts 299°
2026-05-05 05:48 8.94111 125.49973 351 ft 142 kts 300°
2026-05-05 05:48 8.94553 125.49086 168 ft 141 kts 300°
2026-05-05 05:48 8.94992 125.48209 53 ft 132 kts 300°
2026-05-05 05:49 8.95280 125.47620 45 ft 49 kts 295°
2026-05-05 05:49 8.95383 125.47410 42 ft 30 kts 296°
2026-05-05 05:49 8.95474 125.47226 41 ft 29 kts 296°
2026-05-05 05:49 8.95556 125.47070 39 ft 17 kts 304°
2026-05-05 05:50 8.95599 125.47017 38 ft 4 kts 301°
2026-05-05 05:50 8.95590 125.47003 39 ft 3 kts 168°
2026-05-05 05:50 8.95571 125.47025 39 ft 4 kts 119°
2026-05-05 05:50 8.95557 125.47055 39 ft 4 kts 116°
2026-05-05 05:51 8.95542 125.47085 39 ft 4 kts 116°
2026-05-05 05:51 8.95527 125.47117 40 ft 5 kts 115°
2026-05-05 05:51 8.95505 125.47161 40 ft 8 kts 116°
2026-05-05 05:51 8.95467 125.47239 40 ft 15 kts 117°
2026-05-05 05:52 8.95411 125.47353 41 ft 20 kts 116°
2026-05-05 05:52 8.95339 125.47500 43 ft 25 kts 116°
2026-05-05 05:52 8.95257 125.47667 45 ft 26 kts 116°
2026-05-05 05:52 8.95179 125.47824 47 ft 24 kts 116°
2026-05-05 05:53 8.95107 125.47971 49 ft 22 kts 116°
2026-05-05 05:53 8.95040 125.48107 51 ft 20 kts 116°
2026-05-05 05:53 8.94981 125.48227 52 ft 12 kts 116°
2026-05-05 05:53 8.94951 125.48289 53 ft 5 kts 116°
2026-05-05 05:54 8.94933 125.48309 53 ft 3 kts 163°
2026-05-05 05:54 8.94911 125.48298 53 ft 4 kts 233°
2026-05-05 05:54 8.94894 125.48260 53 ft 6 kts 250°
2026-05-05 05:54 8.94896 125.48222 53 ft 4 kts 284°
2026-05-05 05:55 8.94891 125.48195 53 ft 3 kts 243°
2026-05-05 05:55 8.94878 125.48174 53 ft 2 kts 237°
2026-05-05 05:55 8.94872 125.48166 53 ft 1 kts 237°